User: anonymous   Login
Location: *
(60.1759°S, 155.0663°W)
Time: 05:26:25
(UTC+00:00)
Language:

Cosmos 1674 Rocket - Orbit

View from above orbital plane
View from above orbital plane
View from above satellite
View from above satellite

Ground track
Ground track

The orbit data is extracted from the following two-line orbital elements,

1 15945U 85069B   19325.23635879  .00000070  00000-0  55507-5 0  9999
2 15945  82.5298  22.2416 0018505 231.6214 128.3340 14.84019930852583
Epoch (UTC): 21 November 2019 05:40:21
Eccentricity: 0.0018505
inclination: 82.5298°
perigee height: 604 km
apogee height: 629 km
right ascension of ascending node: 22.2416°
argument of perigee: 231.6214°
revolutions per day: 14.84019930
mean anomaly at epoch: 128.3340°
orbit number at epoch: 85258

The dashed part of the orbit path shows where the satellite is in the earth's shadow,  

DLR